Miscellaneous Local Product
Issued by NWS North Platte, NE

Home | Current Version | Previous Version | Graphics & Text | Print | Product List | Glossary Off
Versions: 1 2 3 4 5 6 7 8 9 10 11 12 13 14 15 16 17 18 19 20 21 22 23 24 25 26 27 28 29 30 31 32 33 34 35 36 37 38 39 40 41 42 43 44 45 46 47 48 49 50

000
AXUS43 KLBF 281110
MISLBF


WESTERN AND NORTH CENTRAL NEBRASKA HOURLY WEATHER ROUNDUP
NATIONAL WEATHER SERVICE NORTH PLATTE NE
600 AM CDT TUE APR 28 2015

***STATIONS NOT REPORTING VARIABLES SUCH AS SKY/WEATHER OR
PRESSURE ARE PROVIDED BY THE NEBRASKA DEPARTMENT OF
ROADS...RAWS...AND APRS NETWORKS...AND ARE NOT UNDER
NATIONAL WEATHER SERVICE QUALITY CONTROL***

...OBSERVATIONS IN AND NEAR THE EASTERN PANHANDLE OF NEBRASKA...

CITY           SKY/WX    TMP DP  RH WIND       PRES   REMARKS
PINE RIDGE     CLOUDY    44  41  89 CALM      30.34S
CHADRON        CLOUDY    44  42  93 SW5       30.34F
ALLIANCE       CLOUDY    41  40  96 CALM      30.33S
SIDNEY         CLOUDY    42  40  92 N7        30.34S
WHITECLAY        N/A     41  39  92 CALM        N/A
CRESCENT LAKE    N/A     42  40  92 N6          N/A
BIG SPRINGS      N/A     47  43  86 CALM        N/A
$$

...OBSERVATIONS IN NORTH CENTRAL NEBRASKA...

CITY           SKY/WX    TMP DP  RH WIND       PRES   REMARKS
VALENTINE      CLOUDY    40  38  93 NW6       30.33R
THEDFORD       PTCLDY    42  39  91 NW3       30.32S
AINSWORTH      PTCLDY    40  38  95 NW6       30.31S
O`NEILL        PTCLDY    43  42  97 NW13      30.27S FOG
ORD            CLEAR     41  39  93 NW9       30.26R
BROKEN BOW     CLEAR     43  40  89 N17       30.27R
SPRINGVIEW       N/A     40  38  91 CALM        N/A
ROSE             N/A     41  41  99 SW7         N/A
NEWPORT          N/A     41  41 100 NW9         N/A
SARGENT          N/A     42  40  92 W3          N/A
COMSTOCK         N/A     43  42  96 N6          N/A
EWING            N/A     43  40  89 NW6         N/A
$$

...OBSERVATIONS IN SOUTHWEST NEBRASKA AND FAR NORTHEAST COLORADO...

CITY           SKY/WX    TMP DP  RH WIND       PRES   REMARKS
WRAY           CLOUDY    44  41  88 N5        30.31S
HOLYOKE        PTSUNNY   43  41  93 N9        30.32S
IMPERIAL       PTCLDY    41  37  86 CALM      30.31S
OGALLALA       MOCLDY    44  40  86 NE6       30.33S
NORTH PLATTE   CLEAR     40  38  93 NW5       30.30S
MCCOOK         PTCLDY    44  39  82 CALM      30.27S
LEXINGTON      CLEAR     42  39  90 NW8       30.27S
PAXTON           N/A     43  39  87 CALM        N/A
SUTHERLAND       N/A     38  35  90 N5          N/A  WCI  34
BRADY            N/A     42  38  87 CALM        N/A
GOTHENBURG       N/A     45  39  81 NW3         N/A
CALLAWAY         N/A     43  41  92 N12         N/A
$$

...NORTH PLATTE AREA...

CITY           SKY/WX    TMP DP  RH WIND       PRES   REMARKS
AIRPORT        CLEAR     40  38  93 NW5       30.30S
DOWNTOWN         N/A     42  38  87 NW3         N/A
$$

...SOME WEATHER OBSERVATIONS FROM AROUND THE REGION...

CITY           SKY/WX    TMP DP  RH WIND       PRES   REMARKS
DENVER         CLOUDY    42  38  85 CALM      30.34F
LARAMIE        CLEAR     31  28  89 SE8       30.31F WCI  23
CHEYENNE       CLOUDY    38  37  97 SW5       30.33F FOG     WCI  34
SCOTTSBLUFF    CLOUDY    43  32  65 E5        30.35R
RAPID CITY     CLEAR     31  30  96 NW6       30.33F WCI  25
PIERRE         CLOUDY    44  41  89 W7        30.31S
WINNER         CLOUDY    45  40  82 NW7       30.31S
SIOUX FALLS    PTCLDY    39  31  72 NE3       30.21R
OMAHA          PTCLDY    39  36  89 N6        30.19R WCI  35
GRAND ISLAND   CLEAR     42  39  89 NW5       30.25R
KANSAS CITY    MOCLDY    43  36  76 NE6       30.15S
WICHITA        MOCLDY    48  38  68 N8        30.14R
HAYS           PTCLDY    39  28  65 NW9       30.21R WCI  33
LIBERAL        PTCLDY    37  32  81 NW10      30.23R WCI  30
GOODLAND       CLEAR     39  37  92 NE10      30.29R WCI  32
$$



USA.gov is the U.S. government's official web portal to all federal, state and local government web resources and services.